Regional Weather Roundup
Issued by NWS Albany, NY

Home | Current Version | Previous Version | Graphics & Text | Print | Product List | Glossary Off
Versions: 1 2 3 4 5 6 7 8 9 10 11 12 13 14 15 16 17 18 19 20 21 22 23 24 25 26 27 28 29 30 31 32 33 34 35 36 37 38 39 40 41 42 43 44 45 46 47 48

000
ASUS41 KALY 181910
RWRALY

NEW YORK STATE HOURLY WEATHER ROUNDUP
NATIONAL WEATHER SERVICE ALBANY NY
300 PM EDT WED APR 18 2018

NOTE: "FAIR" INDICATES FEW OR NO CLOUDS BELOW 12,000 FEET WITH NO
SIGNIFICANT WEATHER AND/OR NO OBSTRUCTIONS TO VISIBILITY.

NYZ032-033-038>043-046>054-057>066-NYZ062>081-082-084-182000-
EAST


CITY           SKY/WX    TMP DP  RH WIND       PRES   REMARKS
ALBANY         CLOUDY    45  29  53 W10       29.75S
GLENS FALLS    CLOUDY    43  31  62 W12G23    29.71R
POUGHKEEPSIE   CLOUDY    48  28  46 W8G20     29.76F
NEWBURGH       PTSUNNY   48  32  53 W12G23    29.77F
MONTGOMERY     PTSUNNY   48  29  47 W16G24    29.76F
WHITE PLAINS   FAIR      49  26  41 W12G21    29.75F
ISLIP          PTSUNNY   53  29  39 W9        29.77F
NEW YORK CITY  FAIR      51  27  39 NW15G23   29.78F
CENTRAL PARK   FAIR      52  28  39 VRB3      29.81F
$$

NYZ005>009-017-018-044>046-055-056-182000-
CENTRAL


CITY           SKY/WX    TMP DP  RH WIND       PRES   REMARKS
FULTON           N/A    N/A N/A N/A MISG      29.78S
SYRACUSE       CLOUDY    41  31  67 W10       29.78S
ROME           CLOUDY    40  30  67 W10       29.78S WCI  33
ELMIRA         CLOUDY    41  28  60 W14       29.79F
BINGHAMTON     CLOUDY    38  26  62 W13       29.74F WCI  30
MONTICELLO     CLOUDY    40  27  59 W12       29.76F WCI  33
$$

NYZ026>034-041>043-087-182000-
NORTH


CITY           SKY/WX    TMP DP  RH WIND       PRES   REMARKS
WATERTOWN      CLOUDY    39  35  86 SW18G31   29.74F WCI  30
FORT DRUM      NOT AVBL
OGDENSBURG     FAIR      44  34  67 SW6       29.69S
MASSENA        CLOUDY    44  35  70 SW12G23   29.67S
SARANAC LAKE   CLOUDY    35  33  92 SW12G20   29.63R WCI  27
PLATTSBURGH    LGT RAIN  46  32  58 VRB7G18   29.64R
$$

NYZ001>004-010>016-019>021-085-182000-
WEST


CITY           SKY/WX    TMP DP  RH WIND       PRES   REMARKS
NIAGARA FALLS  CLOUDY    38  28  67 SW15      29.82S WCI  29
BUFFALO        CLOUDY    36  27  69 SW17      29.83R WCI  26
DUNKIRK        CLOUDY    35  28  75 W10       29.86S WCI  27
JAMESTOWN      CLOUDY    33  25  72 W10       29.81S WCI  25
WELLSVILLE     CLOUDY    34  26  72 MISG      29.78R
ROCHESTER      CLOUDY    40  29  64 W16       29.80F WCI  31
PENN YAN       CLOUDY    40  25  55 W9        29.79F WCI  34
$$

             KEY
       WCI = WIND CHILL INDEX
       VSB = VISIBILITY
       HX  = HEAT INDEX
$$



USA.gov is the U.S. government's official web portal to all federal, state and local government web resources and services.